• în România
  • Lista ţărilor
  • Pe 7 zile
  • Temperatura apei
  • Hartă satelitară
  • Meteo pe hartă
  • Widget-uri
  • user-avatar
    Intrare

    Meteo pe oră la Rasskazy

    Astăzi, 20 Septembrie, Joi

    Timp Temperatura Precipitaţii Vânt Presiune Umiditate
    00:00 +16°C° 0 mm 2 m/s 742 mmHg 96%
    01:00 +16°C° 0 mm 2 m/s 742 mmHg 97%
    02:00 +16°C° 0 mm 2 m/s 742 mmHg 97%
    03:00 +15°C° 0 mm 2 m/s 742 mmHg 98%
    04:00 +15°C° 0 mm 2 m/s 743 mmHg 98%
    05:00 +14°C° 0 mm 2 m/s 743 mmHg 98%
    06:00 +15°C° 0 mm 2 m/s 743 mmHg 95%
    07:00 +15°C° 0 mm 2 m/s 743 mmHg 92%
    08:00 +16°C° 0 mm 2 m/s 744 mmHg 89%
    09:00 +18°C° 0 mm 2 m/s 744 mmHg 80%
    10:00 +19°C° 0 mm 2 m/s 744 mmHg 71%
    11:00 +21°C° 0 mm 3 m/s 744 mmHg 63%
    12:00 +22°C° 0 mm 3 m/s 744 mmHg 60%
    13:00 +22°C° 0 mm 3 m/s 744 mmHg 57%
    14:00 +24°C° 0 mm 3 m/s 744 mmHg 54%
    15:00 +23°C° 0 mm 2 m/s 744 mmHg 60%
    16:00 +21°C° 0 mm 2 m/s 744 mmHg 66%
    17:00 +21°C° 0 mm 1 m/s 744 mmHg 72%
    18:00 +20°C° 0 mm 1 m/s 744 mmHg 77%
    19:00 +18°C° 0 mm 1 m/s 744 mmHg 82%
    20:00 +16°C° 0 mm 1 m/s 745 mmHg 87%
    21:00 +15°C° 0 mm 1 m/s 745 mmHg 88%
    22:00 +15°C° 0 mm 1 m/s 745 mmHg 89%
    23:00 +15°C° 0 mm 2 m/s 745 mmHg 90%

    Mâine, 21 Septembrie, Vineri

    Timp Temperatura Precipitaţii Vânt Presiune Umiditate
    00:00 +14°C° 0 mm 2 m/s 745 mmHg 91%
    01:00 +14°C° 0 mm 2 m/s 745 mmHg 92%
    02:00 +14°C° 0 mm 2 m/s 745 mmHg 93%
    03:00 +14°C° 0 mm 2 m/s 745 mmHg 94%
    04:00 +14°C° 0 mm 2 m/s 745 mmHg 95%
    05:00 +14°C° 0 mm 2 m/s 745 mmHg 96%
    06:00 +15°C° 0 mm 2 m/s 745 mmHg 91%
    07:00 +16°C° 0 mm 2 m/s 745 mmHg 87%
    08:00 +18°C° 0 mm 2 m/s 746 mmHg 83%
    09:00 +20°C° 0 mm 2 m/s 746 mmHg 77%
    10:00 +21°C° 0 mm 3 m/s 746 mmHg 72%
    11:00 +24°C° 0 mm 3 m/s 746 mmHg 66%
    12:00 +25°C° 0.1 mm 3 m/s 745 mmHg 64%
    13:00 +25°C° 0.1 mm 3 m/s 745 mmHg 63%
    14:00 +26°C° 0.1 mm 3 m/s 745 mmHg 61%
    15:00 +25°C° 0.1 mm 3 m/s 745 mmHg 66%
    16:00 +24°C° 0.1 mm 3 m/s 744 mmHg 72%
    17:00 +23°C° 0.1 mm 2 m/s 744 mmHg 77%
    18:00 +21°C° 0 mm 2 m/s 744 mmHg 82%
    19:00 +20°C° 0 mm 3 m/s 744 mmHg 86%
    20:00 +18°C° 0 mm 3 m/s 744 mmHg 91%
    21:00 +18°C° 0 mm 3 m/s 743 mmHg 90%
    22:00 +18°C° 0 mm 3 m/s 743 mmHg 89%
    23:00 +18°C° 0 mm 3 m/s 743 mmHg 89%

    Poimâine, 22 Septembrie, Sâmbătă

    Timp Temperatura Precipitaţii Vânt Presiune Umiditate
    00:00 +18°C° 0 mm 3 m/s 742 mmHg 87%
    01:00 +17°C° 0 mm 4 m/s 742 mmHg 86%
    02:00 +17°C° 0 mm 4 m/s 742 mmHg 85%
    03:00 +17°C° 0 mm 4 m/s 741 mmHg 84%
    04:00 +17°C° 0 mm 4 m/s 740 mmHg 83%
    05:00 +17°C° 0 mm 4 m/s 740 mmHg 83%
    06:00 +16°C° 0 mm 5 m/s 739 mmHg 78%
    07:00 +17°C° 0 mm 5 m/s 739 mmHg 74%
    08:00 +19°C° 0 mm 5 m/s 739 mmHg 70%
    09:00 +19°C° 0.1 mm 5 m/s 739 mmHg 68%
    10:00 +20°C° 0.1 mm 5 m/s 739 mmHg 67%
    11:00 +21°C° 0.1 mm 5 m/s 739 mmHg 65%
    12:00 +19°C° 1.1 mm 5 m/s 739 mmHg 73%
    13:00 +17°C° 1.1 mm 4 m/s 739 mmHg 81%
    14:00 +14°C° 1.1 mm 4 m/s 739 mmHg 89%
    15:00 +13°C° 0.7 mm 3 m/s 739 mmHg 90%
    16:00 +12°C° 0.7 mm 3 m/s 739 mmHg 91%
    17:00 +12°C° 0.7 mm 2 m/s 739 mmHg 93%
    18:00 +12°C° 0.4 mm 2 m/s 739 mmHg 92%
    19:00 +11°C° 0.4 mm 3 m/s 740 mmHg 92%
    20:00 +11°C° 0.4 mm 3 m/s 740 mmHg 92%
    21:00 +11°C° 0.4 mm 3 m/s 740 mmHg 91%
    22:00 +10°C° 0.4 mm 3 m/s 740 mmHg 90%
    23:00 +10°C° 0.4 mm 3 m/s 740 mmHg 89%

    23 Septembrie, Duminică

    Timp Temperatura Precipitaţii Vânt Presiune Umiditate
    00:00 +10°C° 0.1 mm 3 m/s 740 mmHg 91%
    01:00 +9°C° 0.1 mm 2 m/s 740 mmHg 92%
    02:00 +9°C° 0.1 mm 2 m/s 739 mmHg 93%
    03:00 +8°C° 0 mm 2 m/s 739 mmHg 94%
    04:00 +8°C° 0 mm 2 m/s 739 mmHg 95%
    05:00 +7°C° 0 mm 2 m/s 739 mmHg 96%
    06:00 +8°C° 0 mm 2 m/s 738 mmHg 94%
    07:00 +8°C° 0 mm 2 m/s 738 mmHg 91%
    08:00 +9°C° 0 mm 3 m/s 738 mmHg 88%
    09:00 +10°C° 0 mm 3 m/s 738 mmHg 81%
    10:00 +12°C° 0 mm 4 m/s 738 mmHg 73%
    11:00 +13°C° 0 mm 4 m/s 737 mmHg 65%
    12:00 +13°C° 0.4 mm 4 m/s 737 mmHg 65%
    13:00 +13°C° 0.4 mm 4 m/s 737 mmHg 65%
    14:00 +13°C° 0.4 mm 4 m/s 737 mmHg 65%
    15:00 +12°C° 0.3 mm 4 m/s 737 mmHg 71%
    16:00 +11°C° 0.3 mm 3 m/s 737 mmHg 76%
    17:00 +11°C° 0.3 mm 3 m/s 737 mmHg 81%
    18:00 +10°C° 0.1 mm 3 m/s 737 mmHg 84%
    19:00 +9°C° 0.1 mm 3 m/s 737 mmHg 87%
    20:00 +8°C° 0.1 mm 3 m/s 737 mmHg 90%
    21:00 +8°C° 0 mm 3 m/s 737 mmHg 91%
    22:00 +7°C° 0 mm 3 m/s 737 mmHg 92%
    23:00 +7°C° 0 mm 3 m/s 738 mmHg 93%

    24 Septembrie, Luni

    Timp Temperatura Precipitaţii Vânt Presiune Umiditate
    00:00 +7°C° 0 mm 3 m/s 738 mmHg 94%
    01:00 +7°C° 0 mm 3 m/s 738 mmHg 95%
    02:00 +6°C° 0 mm 2 m/s 738 mmHg 96%
    03:00 +6°C° 0 mm 2 m/s 737 mmHg 97%
    04:00 +6°C° 0 mm 2 m/s 737 mmHg 97%
    05:00 +6°C° 0 mm 2 m/s 737 mmHg 97%
    06:00 +6°C° 0 mm 2 m/s 737 mmHg 95%
    07:00 +7°C° 0 mm 2 m/s 737 mmHg 93%
    08:00 +7°C° 0 mm 2 m/s 737 mmHg 91%
    09:00 +9°C° 0 mm 2 m/s 737 mmHg 84%
    10:00 +10°C° 0 mm 3 m/s 736 mmHg 77%
    11:00 +11°C° 0 mm 3 m/s 736 mmHg 70%
    12:00 +11°C° 0.2 mm 3 m/s 735 mmHg 71%
    13:00 +11°C° 0.2 mm 4 m/s 734 mmHg 72%
    14:00 +11°C° 0.2 mm 4 m/s 733 mmHg 73%
    15:00 +10°C° 2.6 mm 4 m/s 732 mmHg 80%
    16:00 +8°C° 2.6 mm 5 m/s 731 mmHg 86%
    17:00 +7°C° 2.6 mm 5 m/s 730 mmHg 93%
    18:00 +7°C° 2.5 mm 5 m/s 729 mmHg 93%
    19:00 +7°C° 2.5 mm 5 m/s 727 mmHg 93%
    20:00 +7°C° 2.5 mm 6 m/s 726 mmHg 93%
    21:00 +7°C° 1.2 mm 6 m/s 725 mmHg 93%
    22:00 +8°C° 1.2 mm 6 m/s 723 mmHg 93%
    23:00 +8°C° 1.2 mm 6 m/s 721 mmHg 93%

    25 Septembrie, Marţi

    Timp Temperatura Precipitaţii Vânt Presiune Umiditate
    00:00 +9°C° 0.8 mm 5 m/s 721 mmHg 93%
    01:00 +9°C° 0.8 mm 5 m/s 720 mmHg 94%
    02:00 +10°C° 0.8 mm 5 m/s 719 mmHg 94%
    03:00 +9°C° 0.4 mm 5 m/s 719 mmHg 94%
    04:00 +9°C° 0.4 mm 5 m/s 719 mmHg 93%
    05:00 +8°C° 0.4 mm 5 m/s 718 mmHg 93%
    06:00 +8°C° 0.7 mm 4 m/s 718 mmHg 93%
    07:00 +8°C° 0.7 mm 4 m/s 719 mmHg 94%
    08:00 +8°C° 0.7 mm 4 m/s 719 mmHg 94%
    09:00 +7°C° 0.5 mm 4 m/s 719 mmHg 94%
    10:00 +7°C° 0.5 mm 4 m/s 720 mmHg 93%
    11:00 +7°C° 0.5 mm 4 m/s 720 mmHg 93%
    12:00 +7°C° 0.5 mm 5 m/s 721 mmHg 92%
    13:00 +6°C° 0.5 mm 5 m/s 722 mmHg 92%
    14:00 +6°C° 0.5 mm 5 m/s 723 mmHg 92%
    15:00 +5°C° 0.5 mm 6 m/s 723 mmHg 91%
    16:00 +5°C° 0.5 mm 6 m/s 724 mmHg 90%
    17:00 +5°C° 0.5 mm 7 m/s 725 mmHg 90%
    18:00 +4°C° 0.8 mm 7 m/s 726 mmHg 90%
    19:00 +4°C° 0.8 mm 7 m/s 727 mmHg 90%
    20:00 +4°C° 0.8 mm 7 m/s 728 mmHg 90%
    21:00 +4°C° 0.5 mm 7 m/s 729 mmHg 90%
    22:00 +3°C° 0.5 mm 7 m/s 730 mmHg 90%
    23:00 +3°C° 0.5 mm 6 m/s 730 mmHg 90%
    Arată mai mult